Location: Unspecified
(40.9447°N, 78.9903°W)
Time: 09:49:39
(UTC-04:00)

CZ-3 Stage 3 - Pass Details

Date: 30 July 2021
Orbit: 451 x 34732 km, 30.4° (Epoch: 19 September)

Event Time Altitude Azimuth Distance (km) Brightness Sun altitude
Exits shadow 04:11:45 14° 157° (SSE) 1,700 4.1 -18.8°
Drops below altitude 10° 04:13:26 10° 137° (SE) 2,332 5.0 -18.6°
Sets 04:18:32 0° 117° (ESE) 4,748 6.8 -18.0°
